This is the latest recevied weather packets stored in our database for station/object KD5FHA. If no packets are shown the sender has not sent any weather packets the latest 10 day(s).
| Time | Temp. | Humidity | Pressure | Rain* | Wind** | Luminosity | Snow |
|---|---|---|---|---|---|---|---|
| 1778178931 | 21.67° C | 53% | 1018.3 hPa | 0 mm | - | 844 W/m² | - |
| 1778178628 | 21.11° C | 52% | 1018 hPa | 0 mm | - | 502 W/m² | - |
| 1778178325 | 21.11° C | 52% | 1018.1 hPa | 0 mm | - | 545 W/m² | - |
| 1778178020 | 21.11° C | 53% | 1018.1 hPa | 0 mm | - | 800 W/m² | - |
| 1778177718 | 21.11° C | 52% | 1018.2 hPa | 0 mm | - | 577 W/m² | - |
| 1778177414 | 21.11° C | 55% | 1018.4 hPa | 0 mm | - | 618 W/m² | - |
| 1778177110 | 21.11° C | 53% | 1018.4 hPa | 0 mm | - | 467 W/m² | - |
| 1778176807 | 20° C | 56% | 1018.4 hPa | 0 mm | - | 581 W/m² | - |
| 1778176503 | 20.56° C | 54% | 1018.4 hPa | 0 mm | - | 411 W/m² | - |
| 1778176201 | 20.56° C | 56% | 1018.4 hPa | 0 mm | - | 449 W/m² | - |
| 1778175898 | 20.56° C | 56% | 1018.5 hPa | 0 mm | - | 604 W/m² | - |
| 1778175595 | 20° C | 58% | 1018.6 hPa | 0 mm | - | 429 W/m² | - |
| 1778175292 | 20° C | 57% | 1018.7 hPa | 0 mm | - | 432 W/m² | - |
| 1778174989 | 19.44° C | 60% | 1018.8 hPa | 0 mm | - | 736 W/m² | - |
| 1778174685 | 19.44° C | 59% | 1018.9 hPa | 0 mm | - | 394 W/m² | - |
| 1778174382 | 20° C | 58% | 1018.8 hPa | 0 mm | - | 542 W/m² | - |
| 1778174078 | 20° C | 59% | 1019 hPa | 0 mm | - | 452 W/m² | - |
| 1778173776 | 19.44° C | 59% | 1019.1 hPa | 0 mm | - | 735 W/m² | - |
| 1778173472 | 19.44° C | 59% | 1019.2 hPa | 0 mm | - | 848 W/m² | - |
| 1778173168 | 19.44° C | 60% | 1019.4 hPa | 0 mm | - | 639 W/m² | - |
| 1778172865 | 18.89° C | 59% | 1019.6 hPa | 0 mm | - | 352 W/m² | - |
| 1778172560 | 19.44° C | 61% | 1019.6 hPa | 0 mm | - | 347 W/m² | - |
| 1778172257 | 18.89° C | 61% | 1019.7 hPa | 0 mm | - | 436 W/m² | - |
| 1778171954 | 19.44° C | 58% | 1019.7 hPa | 0 mm | - | 319 W/m² | - |
| 1778171652 | 19.44° C | 60% | 1020.1 hPa | 0 mm | - | 957 W/m² | - |
* Rain latest hour (hover to see other rain measurements)
** Current wind speed in m/s (hover to see current wind gust speed)